Location: Ailly
(50.0793°N, 1.9944°E)
Time: 12:18:26
(UTC+00:00)

Cosmos 2344 - Pass Details

Date: 15 January 2026
Orbit: 1195 x 3047 km, 63.3° (Epoch: 16 February)

Event Time Altitude Azimuth Distance (km) Brightness Sun altitude
Exits shadow 04:00:11 33° 359° (N) 1,940 4.5 -35.3°
Drops below altitude 10° 04:06:19 10° 50° (NE) 3,385 6.4 -34.4°
Sets 04:09:46 0° 60° (ENE) 4,537 7.4 -33.8°
